Regional Weather Roundup
Issued by NWS

Home | Current Version | Previous Version | Text Only | Print | Product List | Glossary On
Versions: 1 2 3 4 5 6 7 8 9 10 11 12 13 14 15 16 17 18 19 20 21 22 23 24 25 26 27 28 29 30 31 32 33 34 35 36 37 38 39 40 41 42 43 44 45 46 47 48 49 50
000
ASUS44 KEWX 270403
RWRTX
SOUTH TEXAS REGIONAL WEATHER ROUNDUP
NATIONAL WEATHER SERVICE AUSTIN/SAN ANTONIO TX
1100 PM CDT SUN APR 26 2015

NOTE: "FAIR" INDICATED FEW OR NO CLOUDS BELOW 12,000 FEET WITH NO
SIGNIFICANT WEATHER AND/OR OBSTRUCTIONS TO VISIBILITY.

* - THESE STATIONS ARE NOT NWS OR FAA STATIONS...AND ARE NOT SUBJECT
    TO NWS AND FAA QUALITY CONTROL.

TXZ171-172-183>190-270500-
TEXAS HILL COUNTRY AND EDWARDS PLATEAU

CITY           SKY/WX    TMP DP  RH WIND       PRES   REMARKS
JUNCTION       TSTM      61  55  81 NW18G31   29.61R
*LLANO         PTCLDY    79  73  83 SE7       29.59R
BURNET         CLOUDY    74  69  85 SE10G25   29.59S
*HORSESHOE BAY MOCLDY    76  71  85 SE9       29.57R
*KERRVILLE     CLOUDY    76  73  88 SE9       29.58R
*FREDERICKSBRG CLOUDY    74  69  84 SE8       29.58R
*ROCKSPRINGS   CLOUDY    73  46  38 NW24G30   29.68R
*BOERNE STAGE  CLOUDY    73  70  88 SE13G21   29.55F
*CASTROVILLE   CLOUDY    77  74  91 SE14G22   29.54F FOG
HONDO          MOCLDY    76  73  91 SE16G24   29.55F
*UVALDE        PTCLDY    76  73  92 SE10      29.51F FOG
DEL RIO        MOCLDY    75  48  38 N28G41    29.55R
LAUGHLIN AFB   MOCLDY    77  54  44 N30G36    29.59R
CARRIZO SPRGS  MOCLDY    79  73  83 SE13G18   29.48F
$$

TXZ173-191>194-202-209-217>225-228-270500-
CENTRAL AND SOUTH CENTRAL TEXAS

CITY           SKY/WX    TMP DP  RH WIND       PRES   REMARKS
GEORGETOWN     CLOUDY    73  61  64 S12G18    29.56F
AUSTIN/BERGSTM MOCLDY    72  66  81 SE12      29.55F
AUSTIN/MABRY   CLOUDY    74  65  73 SE9       29.57F
*AUSTIN/EXEC   CLOUDY    72  64  78 SE8       29.57S
*LAGO VISTA    CLOUDY    74  66  76 SE9       29.59S
SAN MARCOS     CLOUDY    72  66  83 SE13      29.56F
NEW BRAUNFELS  CLOUDY    73  70  90 SE15      29.54F FOG
RANDOLPH AFB   CLOUDY    74  74  99 SE13      29.53F
PT SAN ANTONIO CLOUDY    77  75  91 SE21      29.51F
SAN ANTONIO    CLOUDY    78  73  84 SE18G26   29.53F
STINSON FIELD  CLOUDY    77  74  90 SE16G24   29.52F FOG
*PLEASANTON    CLOUDY    77  73  88 SE10      29.55F FOG
*LA GRANGE     MOCLDY    73  69  87 SE8       29.56F
*GIDDINGS      PTCLDY    72  66  83 SE8       29.60F
*GONZALES      CLOUDY   N/A N/A N/A SE13G21   29.56F HAZE
$$

TXZ163>164-176>182-195>201-210>213-226-227-235-270500-
SOUTHEAST TEXAS

CITY           SKY/WX    TMP DP  RH WIND       PRES   REMARKS
COLLEGE STN    PTCLDY    73  66  78 SE12      29.58F
*BRYAN         PTCLDY    73  70  90 SE8       29.61F
*CALDWELL      PTCLDY    72  64  78 SE13      29.60F
*CROCKETT      NOT AVBL
*BRENHAM       PTCLDY    73  64  75 SE9       29.59F
HUNTSVILLE     PTCLDY    74  70  87 E5        29.62S
CONROE         PTCLDY    72  70  93 E6        29.63S FOG
HOUSTON BUSH   MOCLDY    75  72  90 E9        29.61F
HOUSTON HOBBY  MOCLDY    75  71  87 SE6       29.60F
*HOUSTON SW AP MOCLDY    74  73  97 SE6       29.62S
PEARLAND       MOCLDY    76  72  87 SE10      29.61F
HOUSTON HOOKS  MOCLDY    75  71  87 E7        29.62S
ELLINGTON FLD  MOCLDY    75  72  88 SE6       29.62F
SUGAR LAND     MOCLDY    75  71  87 SE8       29.60S
*HOUSTON EXEC  MOCLDY    72  68  88 CALM      29.62S
*CLEVELAND MUN MOCLDY    71  70  98 CALM      29.64F FOG
*WHARTON       CLOUDY    72  70  96 SE6       29.61F FOG
*COLUMBUS      FAIR      72  70  92 SE9       29.59F
$$

TXZ214>216-236>238-270500-
THE UPPER TEXAS COAST

CITY           SKY/WX    TMP DP  RH WIND       PRES   REMARKS
*ORANGE        CLOUDY    76  72  86 E5        29.68S FOG
PORT ARTHUR    CLOUDY    75  73  93 E6        29.65F FOG
GALVESTON      CLOUDY    75  73  93 SE14      29.63F
ANGLETON       CLOUDY    74  72  93 SE8       29.61S
*BAY CITY      CLOUDY    76  75  96 E9        29.61S
PALACIOS       CLOUDY    76  74  93 E15       29.59F
$$

TXZ229>234-239>247-270500-
TEXAS COASTAL BEND AND RIO GRANDE PLAINS

CITY           SKY/WX    TMP DP  RH WIND       PRES   REMARKS
VICTORIA       CLOUDY    75  75 100 SE9       29.58F FOG
*BEEVILLE      CLOUDY    78  78 100 SE10      29.57S FOG
ROCKPORT       CLOUDY    78  75  90 SE14      29.57S FOG
*PORT ARANSAS  CLOUDY    76  75  98 SE12      29.57F FOG
*PORT LAVACA   CLOUDY    75  75 100 E13G18    29.59F FOG
*INGLESIDE     CLOUDY    79  76  92 SE10G17   29.57F FOG
CORPUS CHRISTI CLOUDY    78  76  93 SE10      29.57S FOG
CORPUS NAS     CLOUDY    77  76  96 SE10      29.57S FOG
*ROBSTOWN      CLOUDY    79  79 100 MISG      29.57S FOG
ALICE          CLOUDY    80  76  87 SE13      29.54F FOG
KINGSVILLE NAS CLOUDY    79  79 100 SE9       29.56S FOG
COTULLA        MOCLDY    79  73  82 SE15      29.51F HAZE
*FAITH RANCH   CLEAR     81  72  74 E8        29.50S
LAREDO         MOCLDY    82  75  79 SE13      29.52F
$$

TXZ248>255-270500-
DEEP SOUTH TEXAS

CITY           SKY/WX    TMP DP  RH WIND       PRES   REMARKS
BROWNSVILLE    CLOUDY    80  78  94 SE5       29.57S FOG
PORT ISABEL    CLOUDY    80  77  90 SE14      29.54F FOG
*SOUTH PADRE     N/A    N/A N/A N/A MISG        N/A
HARLINGEN      CLOUDY    80  77  90 S13       29.54S FOG
*HEBBRONVILLE  MOCLDY    78  75  88 SE5       29.56F FOG
MCALLEN        MOCLDY    82  77  84 SE8       29.55R HAZE    HX  90
*WESLACO       CLOUDY    79  76  90 S10       29.54S FOG
FALFURRIAS       N/A     79  77  92 SE6       29.53F
EDINBURG       CLOUDY    82  77  85 CALM      29.56R HAZE
*ZAPATA        CLOUDY    80  75  84 SE8       29.52F HAZE
$$

TXZ213>215-236>238-242>244-246-247-251-254-255-270500-
CMAN STATIONS

STATION/POSITION TIME  TEMP    WIND        PRES    WAVE
                       AIR SEA DIR/SP/G            HT/PER
                 (UTC) (F)     (DEG/KT/KT) (MB)    (FT/S)
$$

GMZ080-GMZ150>470-270500-
OFFSHORE BUOY REPORTS

STATION/POSITION TIME  TEMP    WIND        PRES    WAVE
                       AIR SEA DIR/SP/G            HT/PER
                 (UTC) (F)     (DEG/KT/KT) (MB)    (FT/S)
$$


USA.gov is the U.S. government's official web portal to all federal, state and local government web resources and services.